Location: Stockholm
(59.3330°N, 18.0500°E)
Time: 03:59:07
(UTC+02:00)

NOAA 18 - Pass Details

Date: 05 April 2023
Orbit: 838 x 860 km, 98.9° (Epoch: 31 May)

Event Time Altitude Azimuth Distance (km) Brightness Sun altitude
Exits shadow 22:17:21 27° 165° (SSE) 1,615 6.2 -17.7°
Maximum altitude 22:20:34 83° 252° (WSW) 876 5.2 -18.0°
Drops below altitude 10° 22:26:10 10° 341° (NNW) 2,510 8.8 -18.5°
Sets 22:28:34 0° 342° (NNW) 3,449 9.7 -18.6°
